Regional Weather Roundup
Issued by NWS State College, PA

Home | Current Version | Previous Version | Text Only | Print | Product List | Glossary On
Versions: 1 2 3 4 5 6 7 8 9 10 11 12 13 14 15 16 17 18 19 20 21 22 23 24 25 26 27 28 29 30 31 32 33 34 35 36 37 38 39 40 41 42 43 44 45 46 47 48 49 50
000
ASUS41 KCTP 241303
RWRCTP

REGIONAL WEATHER ROUNDUP
NATIONAL WEATHER SERVICE STATE COLLEGE PA
900 AM EDT WED MAY 24 2017

Note: "fair" indicates few or no clouds below 12,000 feet with no
significant weather and/or obstructions to visibility.

* = STATION THAT DOES NOT REPORT PRECIPITATION /E.G. RAIN...SNOW...ETC/
    THUNDER OR FOG.

PAZ002>004-007>009-013>016-020>023-029>032-241400-
WESTERN PENNSYLVANIA

CITY           SKY/WX    TMP DP  RH WIND       PRES   REMARKS
ERIE           CLOUDY    60  51  72 SE8       29.66S
MEADVILLE      CLOUDY    58  52  80 VRB6      29.67S
FRANKLIN*      CLOUDY    59  50  72 SE12      29.69S
NEW CASTLE     CLOUDY    61  55  81 SE7       29.67S
BEAVER COUNTY  CLOUDY    57  54  88 SE7       29.66S
BUTLER*        CLOUDY    59  54  82 E9        29.68S
PITTSBURGH INT CLOUDY    60  55  83 E8        29.65S
PITTSBURGH     CLOUDY    60  52  74 E7        29.65S
INDIANA*       NOT AVBL
LATROBE        PTSUNNY   61  50  67 W6        29.67F
WASHINGTON CO* CLOUDY    59  54  82 E5        29.67S
$$

PAZ004>006-010>012-017>019-024>028-033>037-041-042-045-046-049>053-241400-
CENTRAL PENNSYLVANIA

CITY           SKY/WX    TMP DP  RH WIND       PRES   REMARKS
BRADFORD       CLOUDY    55  49  80 SE7       29.73R
DUBOIS         PTSUNNY   58  49  72 SE10      29.70F
CLEARFIELD     CLOUDY    59  51  75 E8        29.73F
JOHNSTOWN      CLOUDY    56  51  84 SE8       29.71F
ALTOONA        CLOUDY    59  53  80 SE8       29.74S
STATE COLLEGE  MOSUNNY   55  50  82 CALM      29.74F
WILLIAMSPORT   MOSUNNY   60  52  74 SE3       29.75S
SELINSGROVE    CLOUDY    59  53  80 CALM      29.76F
FT INDIANTOWN  CLOUDY    60  56  88 CALM      29.75F
CAPITAL CITY   CLOUDY    62  54  74 CALM      29.75F
HARRISBURG     CLOUDY    60  56  86 CALM      29.75F
YORK           CLOUDY    60  55  83 CALM      29.75S HAZE
$$

PAZ038>040-043-044-047-048-054-055-060>062-067>071-241400-
EASTERN PENNSYLVANIA

CITY           SKY/WX    TMP DP  RH WIND       PRES   REMARKS
SCRANTON       CLOUDY    61  51  70 CALM      29.78R
MOUNT POCONO   CLOUDY    56  49  77 E5        29.77R
ALLENTOWN      CLOUDY    60  54  80 NE3       29.76R
QUAKERTOWN*    PTSUNNY   59  54  82 CALM      29.77R
READING        CLOUDY    59  58  96 N6        29.76R
LANCASTER      CLOUDY    61  57  87 NE5       29.75R
COATESVILLE    MOSUNNY   61  52  72 CALM      29.78R
POTTSTOWN      MOSUNNY   61  52  72 CALM      29.77R
BLUE BELL      CLOUDY    59  54  82 E3        29.77R
DOYLESTOWN     CLOUDY    60  56  86 N5        29.75R
WILLOW GROVE   NOT AVBL
NORTH PHILA    CLOUDY    61  55  81 NE6       29.76R
PHILADELPHIA   CLOUDY    60  53  77 E9        29.75R
$$




USA.gov is the U.S. government's official web portal to all federal, state and local government web resources and services.